This is the latest recevied weather packets stored in our database for station/object KN6WGU. If no packets are shown the sender has not sent any weather packets the latest 10 day(s).
| Time | Temp. | Humidity | Pressure | Rain* | Wind** | Luminosity | Snow |
|---|---|---|---|---|---|---|---|
| 1787441496 | 21.67° C | 92% | 1002.6 hPa | 0 mm | - | 36 W/m² | - |
| 1787441191 | 21.11° C | 95% | 1002.5 hPa | 0 mm | - | 48 W/m² | - |
| 1787440887 | 20.56° C | 96% | 1002.6 hPa | 0 mm | - | 50 W/m² | - |
| 1787440581 | 20.56° C | 96% | 1002.3 hPa | 0 mm | - | 27 W/m² | - |
| 1787440278 | 20.56° C | 97% | 1002.5 hPa | 0 mm | - | 27 W/m² | - |
| 1787439975 | 20.56° C | 97% | 1002.3 hPa | 0 mm | - | 59 W/m² | - |
| 1787439670 | 20.56° C | 97% | 1002 hPa | 0 mm | - | 69 W/m² | - |
| 1787439365 | 20.56° C | 98% | 1002.1 hPa | 0 mm | - | 105 W/m² | - |
| 1787439061 | 20° C | 98% | 1002 hPa | 0 mm | - | 96 W/m² | - |
| 1787438756 | 20° C | 98% | 1001.8 hPa | 0 mm | - | 104 W/m² | - |
| 1787438449 | 19.44° C | 98% | 1001.8 hPa | 0 mm | - | 103 W/m² | - |
| 1787438144 | 18.89° C | 98% | 1001.8 hPa | 0 mm | - | 158 W/m² | - |
| 1787437839 | 18.89° C | 98% | 1002 hPa | 0 mm | - | 156 W/m² | - |
| 1787437536 | 18.33° C | 98% | 1001.8 hPa | 0 mm | - | 146 W/m² | - |
| 1787437232 | 17.78° C | 98% | 1002.1 hPa | 0 mm | - | 81 W/m² | - |
| 1787436928 | 17.78° C | 98% | 1002.2 hPa | 0 mm | - | 56 W/m² | - |
| 1787436625 | 17.78° C | 98% | 1002.5 hPa | 0 mm | - | 41 W/m² | - |
| 1787436319 | 17.22° C | 98% | 1002.5 hPa | 0 mm | - | 26 W/m² | - |
| 1787436014 | 17.78° C | 97% | 1002.6 hPa | 0 mm | - | 29 W/m² | - |
| 1787435709 | 17.78° C | 97% | 1002.8 hPa | 1.78 mm | - | 32 W/m² | - |
| 1787435405 | 17.22° C | 97% | 1003 hPa | 1.78 mm | - | 38 W/m² | - |
| 1787435102 | 17.22° C | 97% | 1002.8 hPa | 1.78 mm | - | 28 W/m² | - |
| 1787434797 | 17.22° C | 96% | 1002.6 hPa | 0 mm | - | 14 W/m² | - |
| 1787434494 | 17.22° C | 96% | 1003 hPa | 0 mm | - | 12 W/m² | - |
| 1787434189 | 17.22° C | 96% | 1003.2 hPa | 0 mm | - | 14 W/m² | - |
* Rain latest hour (hover to see other rain measurements)
** Current wind speed in m/s (hover to see current wind gust speed)